When you browse on this site, cookies collect data to enhance your experience and personalize the content and advertising you see.
Visit our Privacy Policy to learn more. By continuing to use the site, you agree to this use of cookies and data.
  • In Czech Republic
  • List of Countries
  • For 7 days
  • Water Temperature
  • Satellite Maps
  • Weather Map
  • Weather Widgets
  • user-avatar
    Login

    Hourly Weather Armagh

    Today, 16 January, Wednesday

    Time Temperature Precipitation Wind Pressure Humidity
    00:00 +5°C° 0 mm 7 mps 746 mmHg 85%
    01:00 +5°C° 0.3 mm 6 mps 746 mmHg 87%
    02:00 +7°C° 0.3 mm 6 mps 745 mmHg 88%
    03:00 +7°C° 0.3 mm 6 mps 745 mmHg 90%
    04:00 +6°C° 0.1 mm 5 mps 745 mmHg 90%
    05:00 +5°C° 0.1 mm 5 mps 745 mmHg 89%
    06:00 +4°C° 0 mm 4 mps 745 mmHg 89%
    07:00 +3°C° 0 mm 4 mps 745 mmHg 89%
    08:00 +3°C° 0 mm 4 mps 745 mmHg 89%
    09:00 +1°C° 0 mm 4 mps 745 mmHg 90%
    10:00 +3°C° 0 mm 4 mps 745 mmHg 86%
    11:00 +3°C° 0 mm 5 mps 745 mmHg 83%
    12:00 +5°C° 0 mm 5 mps 745 mmHg 79%
    13:00 +5°C° 0.1 mm 4 mps 745 mmHg 80%
    14:00 +5°C° 0.1 mm 4 mps 744 mmHg 80%
    15:00 +5°C° 0.1 mm 3 mps 744 mmHg 81%
    16:00 +4°C° 0 mm 3 mps 744 mmHg 83%
    17:00 +3°C° 0 mm 3 mps 745 mmHg 85%
    18:00 +2°C° 0 mm 3 mps 745 mmHg 88%
    19:00 +2°C° 0 mm 3 mps 746 mmHg 88%
    20:00 +1°C° 0 mm 3 mps 746 mmHg 89%
    21:00 +2°C° 0 mm 2 mps 747 mmHg 90%
    22:00 +1°C° 0 mm 3 mps 748 mmHg 89%
    23:00 0°C° 0 mm 4 mps 750 mmHg 88%

    Tomorrow, 17 January, Thursday

    Time Temperature Precipitation Wind Pressure Humidity
    00:00 0°C° 0 mm 5 mps 751 mmHg 87%
    01:00 0°C° 0 mm 4 mps 752 mmHg 85%
    02:00 -1°C° 0 mm 4 mps 753 mmHg 82%
    03:00 -1°C° 0 mm 4 mps 754 mmHg 80%
    04:00 -2°C° 0 mm 4 mps 755 mmHg 81%
    05:00 -1°C° 0 mm 3 mps 756 mmHg 82%
    06:00 -1°C° 0 mm 3 mps 757 mmHg 84%
    07:00 -2°C° 0 mm 2 mps 757 mmHg 85%
    08:00 -2°C° 0 mm 2 mps 758 mmHg 86%
    09:00 -2°C° 0 mm 2 mps 758 mmHg 87%
    10:00 -1°C° 0 mm 2 mps 759 mmHg 83%
    11:00 +3°C° 0 mm 1 mps 759 mmHg 79%
    12:00 +4°C° 0 mm 1 mps 759 mmHg 75%
    13:00 +4°C° 0 mm 1 mps 759 mmHg 76%
    14:00 +4°C° 0 mm 1 mps 759 mmHg 76%
    15:00 +4°C° 0 mm 1 mps 758 mmHg 77%
    16:00 +3°C° 0 mm 1 mps 758 mmHg 79%
    17:00 +1°C° 0 mm 2 mps 758 mmHg 82%
    18:00 +1°C° 0 mm 2 mps 758 mmHg 84%
    19:00 +1°C° 0 mm 2 mps 757 mmHg 83%
    20:00 0°C° 0 mm 3 mps 757 mmHg 81%
    21:00 -1°C° 0 mm 4 mps 757 mmHg 79%
    22:00 0°C° 0 mm 4 mps 756 mmHg 78%
    23:00 0°C° 0 mm 5 mps 755 mmHg 77%

    Day after tomorrow, 18 January, Friday

    Time Temperature Precipitation Wind Pressure Humidity
    00:00 0°C° 0 mm 5 mps 754 mmHg 75%
    01:00 +1°C° 0.6 mm 5 mps 753 mmHg 79%
    02:00 +1°C° 0.6 mm 6 mps 752 mmHg 83%
    03:00 +1°C° 0.6 mm 6 mps 751 mmHg 87%
    04:00 +2°C° 0.8 mm 6 mps 750 mmHg 89%
    05:00 +2°C° 0.8 mm 6 mps 750 mmHg 91%
    06:00 +2°C° 0.8 mm 6 mps 749 mmHg 93%
    07:00 +3°C° 0 mm 4 mps 749 mmHg 95%
    08:00 +3°C° 0 mm 3 mps 748 mmHg 96%
    09:00 +4°C° 0 mm 2 mps 748 mmHg 98%
    10:00 +4°C° 0 mm 2 mps 748 mmHg 97%
    11:00 +5°C° 0 mm 2 mps 747 mmHg 96%
    12:00 +5°C° 0 mm 2 mps 747 mmHg 96%
    13:00 +5°C° 0 mm 2 mps 747 mmHg 95%
    14:00 +5°C° 0 mm 2 mps 746 mmHg 95%
    15:00 +6°C° 0 mm 2 mps 746 mmHg 94%
    16:00 +5°C° 0.2 mm 2 mps 746 mmHg 95%
    17:00 +5°C° 0.2 mm 2 mps 746 mmHg 96%
    18:00 +4°C° 0.2 mm 3 mps 746 mmHg 97%
    19:00 +4°C° 0.1 mm 3 mps 746 mmHg 97%
    20:00 +4°C° 0.1 mm 2 mps 746 mmHg 97%
    21:00 +4°C° 0.1 mm 2 mps 746 mmHg 97%
    22:00 +4°C° 0 mm 2 mps 746 mmHg 98%
    23:00 +4°C° 0 mm 2 mps 746 mmHg 98%

    19 January, Saturday

    Time Temperature Precipitation Wind Pressure Humidity
    00:00 +5°C° 0 mm 1 mps 746 mmHg 98%
    01:00 +5°C° 0 mm 1 mps 746 mmHg 98%
    02:00 +4°C° 0 mm 1 mps 745 mmHg 98%
    03:00 +4°C° 0 mm 1 mps 745 mmHg 98%
    04:00 +4°C° 0.1 mm 1 mps 745 mmHg 98%
    05:00 +4°C° 0.1 mm 1 mps 745 mmHg 98%
    06:00 +5°C° 0.1 mm 1 mps 745 mmHg 98%
    07:00 +5°C° 0.1 mm 1 mps 746 mmHg 98%
    08:00 +5°C° 0.1 mm 1 mps 746 mmHg 98%
    09:00 +4°C° 0.1 mm 0 mps 746 mmHg 98%
    10:00 +4°C° 0 mm 0 mps 747 mmHg 96%
    11:00 +5°C° 0 mm 0 mps 747 mmHg 94%
    12:00 +6°C° 0 mm 0 mps 748 mmHg 93%
    13:00 +7°C° 0 mm 1 mps 748 mmHg 93%
    14:00 +7°C° 0 mm 1 mps 748 mmHg 94%
    15:00 +7°C° 0 mm 1 mps 748 mmHg 94%
    16:00 +6°C° 0 mm 1 mps 749 mmHg 95%
    17:00 +6°C° 0 mm 1 mps 749 mmHg 95%
    18:00 +6°C° 0 mm 1 mps 750 mmHg 96%
    19:00 +5°C° 0 mm 2 mps 750 mmHg 96%
    20:00 +5°C° 0 mm 2 mps 751 mmHg 96%
    21:00 +4°C° 0 mm 2 mps 752 mmHg 97%
    22:00 +4°C° 0 mm 2 mps 752 mmHg 97%
    23:00 +4°C° 0 mm 2 mps 753 mmHg 96%

    20 January, Sunday

    Time Temperature Precipitation Wind Pressure Humidity
    00:00 +4°C° 0 mm 2 mps 753 mmHg 96%
    01:00 +4°C° 0 mm 2 mps 754 mmHg 96%
    02:00 +4°C° 0 mm 2 mps 754 mmHg 96%
    03:00 +3°C° 0 mm 2 mps 755 mmHg 96%
    04:00 +3°C° 0 mm 2 mps 755 mmHg 96%
    05:00 +3°C° 0 mm 2 mps 756 mmHg 96%
    06:00 +2°C° 0 mm 2 mps 757 mmHg 96%
    07:00 +3°C° 0.1 mm 2 mps 757 mmHg 96%
    08:00 +3°C° 0.1 mm 2 mps 758 mmHg 96%
    09:00 +3°C° 0.1 mm 3 mps 759 mmHg 96%
    10:00 +3°C° 0.3 mm 4 mps 760 mmHg 93%
    11:00 +3°C° 0.3 mm 5 mps 761 mmHg 89%
    12:00 +3°C° 0.3 mm 7 mps 762 mmHg 86%
    13:00 +3°C° 0 mm 6 mps 762 mmHg 84%
    14:00 +3°C° 0 mm 5 mps 763 mmHg 83%
    15:00 +3°C° 0 mm 5 mps 763 mmHg 81%
    16:00 +3°C° 0 mm 4 mps 764 mmHg 83%
    17:00 +1°C° 0 mm 4 mps 764 mmHg 84%
    18:00 +1°C° 0 mm 3 mps 765 mmHg 86%
    19:00 0°C° 0 mm 3 mps 766 mmHg 87%
    20:00 +1°C° 0 mm 2 mps 766 mmHg 89%
    21:00 -1°C° 0 mm 2 mps 767 mmHg 90%
    22:00 -1°C° 0 mm 2 mps 767 mmHg 90%
    23:00 -1°C° 0 mm 2 mps 767 mmHg 91%

    21 January, Monday

    Time Temperature Precipitation Wind Pressure Humidity
    00:00 -1°C° 0 mm 2 mps 768 mmHg 91%
    01:00 +1°C° 0 mm 1 mps 767 mmHg 90%
    02:00 +1°C° 0 mm 1 mps 767 mmHg 89%
    03:00 +1°C° 0 mm 1 mps 767 mmHg 89%
    04:00 +1°C° 0 mm 1 mps 767 mmHg 89%
    05:00 -1°C° 0 mm 2 mps 766 mmHg 89%
    06:00 -1°C° 0 mm 2 mps 766 mmHg 90%
    07:00 -1°C° 0 mm 3 mps 766 mmHg 89%
    08:00 -1°C° 0 mm 3 mps 765 mmHg 88%
    09:00 -1°C° 0 mm 4 mps 765 mmHg 87%
    10:00 0°C° 0 mm 5 mps 764 mmHg 84%
    11:00 +1°C° 0 mm 6 mps 763 mmHg 82%
    12:00 +2°C° 0 mm 7 mps 762 mmHg 79%
    13:00 +2°C° 0.1 mm 7 mps 761 mmHg 80%
    14:00 +2°C° 0.1 mm 8 mps 760 mmHg 81%
    15:00 +2°C° 0.1 mm 8 mps 758 mmHg 83%
    16:00 +3°C° 0.7 mm 7 mps 758 mmHg 86%
    17:00 +3°C° 0.7 mm 7 mps 757 mmHg 89%
    18:00 +4°C° 0.7 mm 7 mps 756 mmHg 92%
    19:00 +3°C° 0.2 mm 6 mps 756 mmHg 91%
    20:00 +2°C° 0.2 mm 5 mps 755 mmHg 91%
    21:00 +1°C° 0.2 mm 4 mps 755 mmHg 90%
    22:00 +1°C° 0.2 mm 5 mps 754 mmHg 90%
    23:00 +1°C° 0.2 mm 5 mps 754 mmHg 89%
    Show more